Location: Woodstock
(35.2731°N, 89.9823°W)
Time: 17:35:48
(UTC+00:00)

Vanguard 3 - Pass Details

Date: 30 May 2025
Orbit: 508 x 3215 km, 33.3° (Epoch: 14 June)

Event Time Altitude Azimuth Distance (km) Brightness Sun altitude
Rises 06:23:57 0° 241° (WSW) 6,854 11.6 -32.6°
Enters shadow 06:24:21 - 241° (WSW) 6,757 11.5 -32.6°
Reaches altitude 10° 06:29:03 10° 239° (WSW) 5,560 - -32.4°
Exits shadow 06:42:08 57° 202° (SSW) 2,330 8.9 -31.9°
Maximum altitude 06:44:15 63° 164° (SSE) 2,073 8.8 -31.8°
Drops below altitude 10° 06:52:53 10° 85° (E) 3,315 10.4 -31.4°
Sets 06:55:10 0° 82° (E) 4,012 11.0 -31.3°
